Location: *
(49.0044°N, 9.5056°E)
Time: 21:21:31
(UTC+00:00)

Cosmos 2297 Rocket - Pass Details

Date: 22 September 2019
Orbit: 841 x 842 km, 71.0° (Epoch: 19 October)

Event Time Altitude Azimuth Distance (km) Brightness Sun altitude
Rises 19:56:21 0° 231° (SW) 3,390 5.6 -25.0°
Reaches altitude 10° 19:58:56 10° 238° (WSW) 2,458 4.9 -25.4°
Maximum altitude 20:04:14 41° 308° (NW) 1,210 3.4 -26.1°
Drops below altitude 10° 20:09:35 10° 18° (NNE) 2,471 4.8 -26.8°
Sets 20:12:12 0° 26° (NNE) 3,410 5.5 -27.2°
